Miscellaneous Local Product
Issued by NWS North Platte, NE

Home | Current Version | Previous Version | Graphics & Text | Print | Product List | Glossary On
Versions: 1 2 3 4 5 6 7 8 9 10 11 12 13 14 15 16 17 18 19 20 21 22 23 24 25 26 27 28 29 30 31 32 33 34 35 36 37 38 39 40 41 42 43 44 45 46 47 48 49 50
072
AXUS43 KLBF 250310
MISLBF


WESTERN AND NORTH CENTRAL NEBRASKA HOURLY WEATHER ROUNDUP
NATIONAL WEATHER SERVICE NORTH PLATTE NE
1000 PM CDT MON APR 24 2017

NOTE: "FAIR" INDICATES FEW OR NO CLOUDS BELOW 12,000 FEET WITH NO
SIGNIFICANT WEATHER AND/OR OBSTRUCTIONS TO VISIBILITY.

NOTE: STATIONS NOT REPORTING VARIABLES SUCH AS SKY/WEATHER OR
PRESSURE ARE PROVIDED BY RAWS AND APRS NETWORKS AND ARE NOT UNDER
NATIONAL WEATHER SERVICE QUALITY CONTROL.

...OBSERVATIONS IN AND NEAR THE EASTERN PANHANDLE OF NEBRASKA...

CITY           SKY/WX    TMP DP  RH WIND       PRES   REMARKS
PINE RIDGE     CLOUDY    52  43  71 NE9       29.59S
CHADRON        LGT RAIN  50  45  83 E9        29.60R
ALLIANCE       CLOUDY    55  36  48 NW9       29.57R
SIDNEY         LGT RAIN  53  39  59 VRB5      29.58S
CRESCENT LAKE    N/A     57  37  47 E13         N/A
$$

...OBSERVATIONS IN NORTHERN NEBRASKA AND FAR SOUTHERN SOUTH DAKOTA...

CITY           SKY/WX    TMP DP  RH WIND       PRES   REMARKS
WINNER         FAIR      44  38  79 N6        29.63R
VALENTINE      PTCLDY    49  39  68 E7        29.62R
THEDFORD       PTCLDY    47  40  77 E3        29.62R
AINSWORTH      CLOUDY    45  40  85 NE8       29.62R
O`NEILL        PTCLDY    48  39  72 N8        29.61R
ORD            CLEAR     50  40  68 N6        29.58R
BROKEN BOW     CLEAR     51  39  63 N3        29.60R
VALENTINE NWR    N/A     50  42  72 NE9         N/A
HALSEY           N/A     51  40  66 CALM        N/A
BUTTE            N/A     45  39  79 CALM        N/A
CHAMBERS         N/A     49  39  69 CALM        N/A
EWING            N/A     48  40  75 N3          N/A
$$

...OBSERVATIONS IN SOUTHWEST NEBRASKA AND FAR NORTHEAST COLORADO...

CITY           SKY/WX    TMP DP  RH WIND       PRES   REMARKS
HOLYOKE        FAIR      61  37  41 SE15      29.59R
IMPERIAL       LGT RAIN  60  40  47 NE9       29.56R
OGALLALA       CLOUDY    60  39  44 E15G22    29.59R
NORTH PLATTE   CLOUDY    53  41  63 E12       29.57S
MCCOOK         CLOUDY    61  43  51 E13       29.52R
LEXINGTON      MOCLDY    58  41  52 NE14      29.55F
STAPLETON        N/A     48  39  71 E3          N/A
GOTHENBURG       N/A     58  39  49 NE5         N/A
CALLAWAY         N/A     54  41  61 E6          N/A
$$

...OBSERVATIONS IN CENTRAL LINCOLN COUNTY AREA...

CITY           SKY/WX    TMP DP  RH WIND       PRES   REMARKS
N.P. AIRPORT   CLOUDY    53  41  63 E12       29.57S
N.P. DOWNTOWN    N/A     54  42  62 NE8         N/A
N.P. HILLCREST   N/A     54  41  62 E15         N/A
$$

...SOME OBSERVATIONS FROM AROUND THE REGION...

CITY           SKY/WX    TMP DP  RH WIND       PRES   REMARKS
DENVER         CLOUDY    50  37  61 N16       29.56R
LIMON          CLOUDY    55  37  50 NE10      29.56S
ASPEN          CLOUDY    47  28  47 S16       29.67S
LARAMIE        LGT RAIN  39  37  92 SE17      29.60F WCI  30
CASPER         LGT RAIN  42  38  85 NW10      29.51F
CHEYENNE       CLOUDY    41  38  89 NE5       29.60F
SCOTTSBLUFF    LGT RAIN  52  45  77 CALM      29.60R
GRAND ISLAND   CLEAR     57  44  62 N12       29.57R
OMAHA          MOCLDY    68  44  42 S12       29.53R
SIOUX FALLS    PTCLDY    52  44  74 NW10      29.55R
PIERRE         CLOUDY    39  34  82 N16       29.64R WCI  30
RAPID CITY     MOCLDY    49  39  68 E14       29.61R
BISMARCK       CLOUDY    35  30  82 N10       29.73S WCI  27
KANSAS CITY    PTCLDY    60  43  53 S12       29.60F
HILL CITY      CLOUDY    63  46  54 E7        29.52R
WICHITA        CLOUDY    64  51  62 S12       29.55S
DODGE CITY     PTCLDY    64  49  57 SE13      29.48S
OKLAHOMA CITY  CLOUDY    65  49  56 S17       29.57F
DALLAS         PTCLDY    70  51  51 S12       29.65R
AMARILLO       CLOUDY    69  29  22 S8        29.51S
$$




USA.gov is the U.S. government's official web portal to all federal, state and local government web resources and services.